Weather History for Huntington, WV

Change the Weather History Date:

Thursday, December 9, 2010

  Actual Average Record
Temperature  
Mean Temperature 21 °F 38 °F  
Max Temperature 33 °F 47 °F 72 °F (1952)
Min Temperature 9 °F 30 °F 0 °F (1917)
Degree Days  
Heating Degree Days 44 27  
Month to date heating degree days 341 228  
Since 1 July heating degree days 1153 1115  
Cooling Degree Days 0 0  
Month to date cooling degree days 0 0  
Year to date cooling degree days 1406 1134  
Moisture  
Dew Point 10 °F    
Average Humidity 63    
Maximum Humidity 92    
Minimum Humidity 33    
Precipitation  
Precipitation 0.00 in 0.11 in 1.56 in (2007)
Month to date precipitation 0.13 1.00  
Year to date precipitation 41.07 40.28  
Snow  
Snow 0.00 in - - ()
Month to date snowfall 3.8  
Since 1 September snowfall 3.8  
Snow Depth 0.00 in    
Sea Level Pressure  
Sea Level Pressure 30.32 in    
Wind  
Wind Speed 3 mph (SE)    
Max Wind Speed 7 mph    
Max Gust Speed 9 mph    
Visibility 10 miles    
Events      
T = Trace of Precipitation, MM = Missing Value Source: NWS Daily Summary

Daily Weather History Graph

Daily Weather History Graph

Search for Another Location

Airport:

Trip Planner

Search our weather history database for the weather conditions in past years. The results will help you decide how hot, cold, wet, or windy it might be!

Date:

Astronomy

Dec. 09, 2010 Rise Set
Actual Time 7:35 AM EST 5:09 PM EST
Civil Twilight 7:06 AM EST 5:39 PM EST
Nautical Twilight 6:32 AM EST 6:12 PM EST
Astronomical Twilight 6:00 AM EST 6:44 PM EST
Moon 10:35 AM EST (12/9) 9:11 PM EST (12/9)
Length of Visible Light 10h 33m
Length of Day
9h 34m
Waxing Crescent, 16% of the Moon is Illuminated
Dec 9
Waxing Crescent
Dec 13
First Quarter
Dec 21
Full
Dec 27
Last Quarter
Jan 4
New

Hourly Weather History & Observations

Time (EST) Temp. Windchill Dew Point Humidity Pressure Visibility Wind Dir Wind Speed Gust Speed Precip Events Conditions
12:51 AM 18.0 °F 9.8 °F 10.0 °F 71% 30.31 in 10.0 mi SW 5.8 mph - N/A   Clear
1:51 AM 17.1 °F 10.0 °F 10.0 °F 74% 30.31 in 10.0 mi SW 4.6 mph - N/A   Clear
2:51 AM 15.1 °F 7.7 °F 10.0 °F 80% 30.33 in 10.0 mi SW 4.6 mph - N/A   Clear
3:51 AM 12.9 °F - 10.0 °F 88% 30.34 in 8.0 mi Calm Calm - N/A   Clear
4:51 AM 12.2 °F - 8.6 °F 85% 30.30 in 8.0 mi Calm Calm - N/A   Clear
5:51 AM 10.9 °F - 8.1 °F 88% 30.35 in 8.0 mi Calm Calm - N/A   Clear
6:51 AM 10.0 °F - 7.0 °F 87% 30.37 in 8.0 mi Calm Calm - N/A   Clear
7:51 AM 9.0 °F - 7.0 °F 92% 30.38 in 8.0 mi Calm Calm - N/A   Clear
8:51 AM 14.0 °F - 10.9 °F 88% 30.39 in 9.0 mi Calm Calm - N/A   Clear
9:51 AM 19.0 °F - 12.9 °F 77% 30.39 in 10.0 mi Calm Calm - N/A   Clear
10:51 AM 24.1 °F 17.0 °F 12.0 °F 60% 30.38 in 10.0 mi South 5.8 mph - N/A   Clear
11:51 AM 26.1 °F 21.9 °F 12.0 °F 55% 30.37 in 10.0 mi Variable 3.5 mph - N/A   Clear
12:51 PM 28.0 °F 21.7 °F 12.0 °F 51% 30.35 in 10.0 mi Variable 5.8 mph - N/A   Clear
1:51 PM 30.9 °F 25.2 °F 8.1 °F 38% 30.33 in 10.0 mi Variable 5.8 mph - N/A   Clear
2:51 PM 32.0 °F 26.4 °F 7.0 °F 35% 30.31 in 10.0 mi Variable 5.8 mph - N/A   Clear
3:51 PM 32.0 °F - 10.0 °F 40% 30.31 in 10.0 mi Calm Calm - N/A   Clear
4:51 PM 30.9 °F - 10.0 °F 42% 30.31 in 10.0 mi Calm Calm - N/A   Clear
5:51 PM 30.0 °F 26.5 °F 8.1 °F 40% 30.30 in 10.0 mi East 3.5 mph - N/A   Clear
6:51 PM 28.9 °F - 10.0 °F 45% 30.29 in 10.0 mi Calm Calm - N/A   Clear
7:51 PM 28.0 °F 24.2 °F 10.0 °F 47% 30.27 in 10.0 mi East 3.5 mph - N/A   Clear
8:51 PM 28.0 °F 24.2 °F 9.0 °F 45% 30.27 in 10.0 mi ESE 3.5 mph - N/A   Scattered Clouds
9:51 PM 28.0 °F 24.2 °F 10.0 °F 47% 30.24 in 10.0 mi ESE 3.5 mph - N/A   Partly Cloudy
10:51 PM 28.0 °F 24.2 °F 12.9 °F 53% 30.21 in 10.0 mi East 3.5 mph - N/A   Overcast
11:51 PM 28.0 °F 22.8 °F 14.0 °F 56% 30.19 in 10.0 mi East 4.6 mph - N/A   Overcast